STARLINK-3047 (49174 NORAD) Tracking and Keplerian Element Data

This shows tracking and keplerian element data for the satellite.

Feedback or suggestion? Click here.




ElementValue
Catalog49174
NameSTARLINK-3047
Epoch Orbit813
Epoch Day300.83334491
Epoch Year2021
RAAN3.9435
Inclination70.0009
Eccentricity0.0003887
Argument of Perigee289.3105
Mean Anonmoly106.9669
Mean Motion15.69760869
Decay Rate-0.00031595
L11 49174U 21082AW 21300.83334491 -.00031595 00000-0 -26372-3 0 9997
L22 49174 70.0009 3.9435 0003887 289.3105 106.9669 15.69760869 8137

Live tracking and technical data element details for STARLINK-3047 (NORAD 49174). STARLINK-3047 can be tracked NOW for your location showing map with azimuth and elevation plus other details from your city location.

Track the satellite on the map from your city or location and see movement details for azimuth, elevation, latitude, longitude, range, height, and movement on the map or in text.







IsCatalogInMostPopularTable: catalog: 49174, numindb: 14
Update: records affected: 1



GetName: 49174 STARLINK-3047

Hit Count: updated at: Thu, 28 Oct 2021 11:11:11 GMT